sat.trackr.live / text

‹ back to catalog

STARLINK-35681

NORAD 66395 · 2025-257R

PAYLOAD ACTIVE UNKNOWN

§ Identity

Operator
Country
US
Launch date
2025-11-09
Launch site
AFETR
Launch vehicle
Mass (kg)
RCS (m²)

Purposes: comms

External: N2YO · Heavens-Above · Gunter

§ Orbital elements

Epoch: 2026-05-25T05:28:11.576064Z

Period
94.10 min
Inclination
53.1572°
Eccentricity
0.0001406
Mean motion
15.30237971 rev/d
Perigee alt
474.1 km
Apogee alt
476.1 km
Semi-major
6,853.2 km
B*
7.8815e-4
RAAN
221.3807°
Arg perigee
69.1932°
Mean anomaly
290.9219°
Rev number
3,137

§ Raw data

STARLINK-356811 66395U 25257R   26145.22791176  .00023084  00000+0  78815-3 0  99912 66395  53.1572 221.3807 0001406  69.1932 290.9219 15.30237971 31372

JSON: /api/v1/satellites/66395 · /tle

For live sub-satellite position, see the globe view (requires WebGL).

§ Visibility from observer

Set your observer location to see the next 7 days of passes ≥ 10°. The values pass through the URL so the page stays shareable.

No JS? Fill the form by hand. The geolocation button needs JavaScript.